パンスターズ彗星

P/2021 P3 ( PanSTARRS )

English version
Home page
Updated on September 18, 2021

---------------------------------------------------------------------

・ プロフィール

発見日 2021年8月11日
発見光度 20.6等
発見者 Pan-STARRS 1 telescope (Haleakala)

・ 写真集

・ 軌道要素

Epoch 2021 July 5.0 TT = JDT 2459400.5
T 2021 May 31.54967 TT                                  Rudenko
q   2.9169871            (2000.0)            P               Q
n   0.10597109     Peri.  334.35646     +0.88924433     +0.45721742
a   4.4226011      Node   358.23891     -0.29996874     +0.55971163
e   0.3404363      Incl.   27.15663     -0.34534515     +0.69114045
P   9.30
From 39 observations 2021 Aug. 3-Sept. 1, mean residual 0".4.

・ 光度変化

        m1 = 13.5 + 5 logΔ + 10.0 log r

---------------------------------------------------------------------

軌道要素はM.P.E.C. 2021-R75に掲載されたものです。
光度グラフはComet for Windowsで作成したものです。

---------------------------------------------------------------------

Copyright(C) Seiichi Yoshida (comet@aerith.net). All rights reserved.